Date String (YYYY-MM-DD hh:mm:ss) UTC,Instrument flags,Ambient pressure (hPa),Sample flow (lpm),Bypass flow (lpm),Sample temperature (°C),Ambient temperature (°C),ASC tube jacket temperature (°C),LED temperature (°C),Box temperature (°C),Sample RH (%),Span deviation,Mass concentration (μg/m³),Mass concentration (μg/m³),Mass concentration (μg/m³)
DateTimeUTC,F1_M11,P_M11,Q1_M11,Q2_M11,T1_M11,T2_M11,T3_M11,T4_M11,T5_M11,U1_M11,ZSPAN_M11,X0_M11,X2_M11,X1_M11
2021-08-31 07:00:00,,0823.7,5.00,0.00,29.6,28.1,00.0,38.7,31.3,15.0,0002.0,0044.13,0031.09,0029.23
2021-08-31 07:01:00,,0823.7,5.00,0.00,29.6,28.3,00.0,38.7,31.4,15.0,0002.1,0044.33,0031.04,0029.16
2021-08-31 07:02:00,,0823.7,4.99,0.00,29.6,28.5,00.0,38.7,31.4,14.9,0002.2,0044.87,0031.01,0029.09
2021-08-31 07:03:00,,0823.7,5.01,0.00,29.7,28.6,00.0,38.7,31.5,14.9,0002.1,0045.12,0031.04,0029.04
2021-08-31 07:04:00,,0823.7,5.00,0.00,29.7,28.7,00.0,38.7,31.5,14.9,0002.0,0045.07,0031.06,0029.02
2021-08-31 07:05:00,,0823.7,5.00,0.00,29.7,28.8,00.0,38.7,31.5,14.8,0001.9,0046.12,0031.08,0029.01
2021-08-31 07:06:00,,0823.7,4.99,0.00,29.8,28.8,00.0,38.8,31.6,14.7,0002.0,0046.59,0031.03,0028.96
2021-08-31 07:07:00,,0823.7,5.00,0.00,29.8,28.9,00.0,38.8,31.6,14.7,0002.0,0046.70,0031.08,0028.92
2021-08-31 07:08:00,,0823.7,5.00,0.00,29.8,29.0,00.0,38.8,31.7,14.7,0002.2,0047.04,0031.06,0028.88
2021-08-31 07:09:00,,0823.7,5.00,0.00,29.9,29.0,00.0,38.8,31.7,14.5,0002.3,0047.38,0031.05,0028.87
2021-08-31 07:10:00,,0823.7,5.00,0.00,29.8,27.9,00.0,38.8,31.4,14.4,0002.3,0047.89,0031.02,0028.85
2021-08-31 07:11:00,,0823.7,5.00,0.00,29.7,26.4,00.0,38.8,31.1,14.6,0002.5,0048.08,0031.00,0028.86
2021-08-31 07:12:00,,0823.7,5.01,0.00,29.6,26.5,00.0,38.8,31.0,14.6,0002.5,0047.68,0031.07,0028.90
2021-08-31 07:13:00,,0823.7,5.00,0.00,29.5,26.8,00.0,38.7,31.1,14.2,0002.5,0047.04,0031.02,0028.90
2021-08-31 07:14:00,,0823.7,5.00,0.00,29.5,27.2,00.0,38.7,31.1,13.9,0002.5,0047.37,0030.92,0028.86
2021-08-31 07:15:00,,0823.7,4.99,0.00,29.5,27.6,00.0,38.7,31.2,13.9,0002.5,0047.00,0030.74,0028.79
2021-08-31 07:16:00,,0823.7,5.00,0.00,29.5,27.9,00.0,38.7,31.2,13.7,0002.7,0046.41,0030.70,0028.77
2021-08-31 07:17:00,,0823.7,5.01,0.00,29.6,28.1,00.0,38.7,31.3,13.7,0002.7,0046.69,0030.74,0028.79
2021-08-31 07:18:00,,0823.7,5.00,0.00,29.6,28.3,00.0,38.7,31.3,13.7,0002.8,0045.59,0030.68,0028.81
2021-08-31 07:19:00,,0823.7,5.01,0.00,29.6,28.4,00.0,38.7,31.4,14.4,0002.7,0044.47,0030.64,0028.83
2021-08-31 07:20:00,,0823.7,5.00,0.00,29.7,28.5,00.0,38.7,31.4,14.6,0002.7,0044.73,0030.66,0028.84
2021-08-31 07:21:00,,0823.7,5.00,0.00,29.7,28.6,00.0,38.7,31.5,14.4,0002.6,0044.83,0030.69,0028.84
2021-08-31 07:22:00,,0823.6,5.01,0.00,29.7,28.7,00.0,38.7,31.5,14.4,0002.6,0044.25,0030.67,0028.84
2021-08-31 07:23:00,,0823.7,5.00,0.00,29.7,28.8,00.0,38.7,31.5,14.5,0002.5,0043.87,0030.59,0028.80
2021-08-31 07:24:00,,0823.7,5.00,0.00,29.8,28.8,00.0,38.8,31.6,14.4,0002.5,0043.74,0030.54,0028.79
2021-08-31 07:25:00,,0823.7,5.00,0.00,29.8,28.9,00.0,38.8,31.6,14.3,0002.6,0043.82,0030.63,0028.86
2021-08-31 07:26:00,,0823.7,5.01,0.00,29.8,28.9,00.0,38.8,31.7,14.3,0002.7,0044.64,0030.71,0028.90
2021-08-31 07:27:00,,0823.7,4.99,0.00,29.9,28.8,00.0,38.8,31.6,14.1,0002.6,0044.65,0030.72,0028.92
2021-08-31 07:28:00,,0823.6,5.02,0.00,29.8,27.1,00.0,38.8,31.2,13.9,0002.4,0044.08,0030.80,0028.96
2021-08-31 07:29:00,,0823.6,4.99,0.00,29.6,26.3,00.0,38.8,30.9,14.0,0002.5,0044.90,0030.84,0028.96
2021-08-31 07:30:00,,0823.5,5.00,0.00,29.6,26.5,00.0,38.8,31.0,14.3,0002.5,0046.16,0030.97,0029.01
2021-08-31 07:31:00,,0823.4,5.00,0.00,29.5,26.9,00.0,38.7,31.0,14.6,0002.4,0046.10,0030.99,0029.02
2021-08-31 07:32:00,,0823.4,5.00,0.00,29.5,27.3,00.0,38.7,31.1,14.4,0002.6,0046.03,0030.97,0029.04
2021-08-31 07:33:00,,0823.5,5.00,0.00,29.5,27.6,00.0,38.7,31.1,14.4,0002.6,0045.94,0030.97,0029.04
2021-08-31 07:34:00,,0823.4,4.99,0.00,29.5,27.8,00.0,38.7,31.2,14.4,0002.5,0046.17,0030.99,0029.07
2021-08-31 07:35:00,,0823.5,5.01,0.00,29.5,28.0,00.0,38.7,31.3,14.5,0002.5,0046.27,0031.07,0029.10
2021-08-31 07:36:00,,0823.5,5.00,0.00,29.5,28.2,00.0,38.7,31.3,14.4,0002.5,0046.88,0031.04,0029.05
2021-08-31 07:37:00,,0823.5,4.99,0.00,29.6,28.3,00.0,38.7,31.3,14.2,0002.3,0047.54,0031.02,0029.02
2021-08-31 07:38:00,,0823.5,5.01,0.00,29.6,28.4,00.0,38.7,31.4,14.0,0002.4,0049.22,0031.10,0029.05
2021-08-31 07:39:00,,0823.6,5.01,0.00,29.6,28.5,00.0,38.7,31.4,13.7,0002.5,0049.46,0031.09,0029.06
2021-08-31 07:40:00,,0823.6,4.99,0.00,29.7,28.6,00.0,38.7,31.5,12.9,0002.3,0049.14,0031.04,0029.06
2021-08-31 07:41:00,,0823.6,5.00,0.00,29.7,28.7,00.0,38.7,31.5,13.0,0002.3,0048.79,0030.97,0029.04
2021-08-31 07:42:00,,0823.6,5.00,0.00,29.8,28.7,00.0,38.7,31.6,13.3,0002.3,0048.12,0030.95,0029.04
2021-08-31 07:43:00,,0823.6,5.00,0.00,29.8,28.8,00.0,38.8,31.6,13.1,0002.2,0047.37,0030.98,0029.04
2021-08-31 07:44:00,,0823.6,5.00,0.00,29.8,28.8,00.0,38.8,31.6,12.9,0002.1,0047.71,0030.99,0029.05
2021-08-31 07:45:00,,0823.6,5.00,0.00,29.8,28.9,00.0,38.8,31.7,13.3,0002.2,0048.35,0030.98,0029.05
2021-08-31 07:46:00,,0823.5,5.00,0.00,29.9,28.9,00.0,38.8,31.7,13.4,0002.3,0048.24,0030.99,0029.03
2021-08-31 07:47:00,,0823.5,4.99,0.00,29.8,27.4,00.0,38.8,31.3,13.3,0002.4,0047.06,0031.04,0029.08
2021-08-31 07:48:00,,0823.4,5.00,0.00,29.7,26.2,00.0,38.8,30.9,13.5,0002.6,0045.99,0031.10,0029.11
2021-08-31 07:49:00,,0823.4,4.99,0.00,29.6,26.3,00.0,38.8,30.9,13.2,0002.7,0045.70,0031.14,0029.10
2021-08-31 07:50:00,,0823.4,5.00,0.00,29.5,26.7,00.0,38.7,31.0,12.8,0002.9,0045.10,0031.07,0029.07
2021-08-31 07:51:00,,0823.4,5.00,0.00,29.5,27.1,00.0,38.7,31.0,12.5,0002.9,0044.46,0031.01,0029.02
2021-08-31 07:52:00,,0823.4,5.00,0.00,29.5,27.4,00.0,38.7,31.1,12.4,0002.9,0043.55,0030.90,0028.97
2021-08-31 07:53:00,,0823.4,5.00,0.00,29.5,27.7,00.0,38.7,31.2,12.3,0003.0,0044.97,0030.74,0028.87
2021-08-31 07:54:00,,0823.4,4.99,0.00,29.5,27.9,00.0,38.7,31.2,12.3,0003.1,0044.78,0030.59,0028.79
2021-08-31 07:55:00,,0823.4,4.99,0.00,29.5,28.1,00.0,38.7,31.3,12.3,0003.2,0044.10,0030.48,0028.70
2021-08-31 07:56:00,,0823.4,5.00,0.00,29.6,28.2,00.0,38.7,31.3,12.3,0003.1,0043.23,0030.51,0028.68
2021-08-31 07:57:00,,0823.3,5.00,0.00,29.6,28.3,00.0,38.7,31.3,12.2,0003.1,0043.03,0030.42,0028.68
2021-08-31 07:58:00,,0823.3,5.01,0.00,29.6,28.4,00.0,38.7,31.4,12.2,0003.0,0042.79,0030.35,0028.66
2021-08-31 07:59:00,,0823.3,5.00,0.00,29.6,28.5,00.0,38.7,31.4,12.2,0002.8,0042.05,0030.30,0028.68
